Time,TemperatureF,DewpointF,PressureIn,WindDirection,WindDirectionDegrees,WindSpeedMPH,WindSpeedGustMPH,Humidity,HourlyPrecipIn,Conditions,Clouds,dailyrainin,SoftwareType,DateUTC
2013-05-02 00:02:00,35.0,34.0,-100.00,North,0,0.0,-999.0,96,-99.99,,,-99.99,,2013-05-02 05:02:00,
2013-05-02 00:12:00,35.0,34.0,-100.00,North,0,0.0,-999.0,96,-99.99,,,-99.99,,2013-05-02 05:12:00,
2013-05-02 00:22:00,35.0,35.0,-100.00,North,0,0.0,-999.0,98,-99.99,,,-99.99,,2013-05-02 05:22:00,
2013-05-02 00:32:00,35.0,35.0,-100.00,North,0,0.0,-999.0,98,-99.99,,,-99.99,,2013-05-02 05:32:00,
2013-05-02 00:42:00,35.0,35.0,-100.00,North,0,0.0,-999.0,98,-99.99,,,-99.99,,2013-05-02 05:42:00,
2013-05-02 00:52:00,35.0,35.0,-100.00,North,0,0.0,-999.0,98,-99.99,,,-99.99,,2013-05-02 05:52:00,
2013-05-02 01:01:00,35.0,34.0,-100.00,North,-999,0.0,-999.0,98,-99.99,,,-99.99,,2013-05-02 06:01:00,
2013-05-02 01:12:00,35.0,34.0,-100.00,North,0,0.0,-999.0,96,-99.99,,,-99.99,,2013-05-02 06:12:00,
2013-05-02 01:21:00,35.0,35.0,-100.00,North,0,0.0,-999.0,97,-99.99,,,-99.99,,2013-05-02 06:21:00,
2013-05-02 01:32:00,35.0,34.0,-100.00,North,0,0.0,-999.0,97,-99.99,,,-99.99,,2013-05-02 06:32:00,
2013-05-02 01:42:00,35.0,34.0,-100.00,North,0,0.0,-999.0,97,-99.99,,,-99.99,,2013-05-02 06:42:00,
2013-05-02 01:52:00,35.0,34.0,-100.00,North,0,0.0,-999.0,94,-99.99,,,-99.99,,2013-05-02 06:52:00,
2013-05-02 02:02:00,35.0,33.0,-100.00,North,0,0.0,-999.0,89,-99.99,,,-99.99,,2013-05-02 07:02:00,
2013-05-02 02:11:00,35.0,33.0,-100.00,North,0,0.0,-999.0,90,-99.99,,,-99.99,,2013-05-02 07:11:00,
2013-05-02 02:21:00,35.0,33.0,-100.00,North,0,0.0,-999.0,89,-99.99,,,-99.99,,2013-05-02 07:21:00,
2013-05-02 02:32:00,35.0,33.0,-100.00,North,0,0.0,-999.0,89,-99.99,,,-99.99,,2013-05-02 07:32:00,
2013-05-02 02:42:00,35.0,33.0,-100.00,North,0,0.0,-999.0,89,-99.99,,,-99.99,,2013-05-02 07:42:00,
2013-05-02 02:52:00,35.0,32.0,-100.00,North,0,0.0,-999.0,87,-99.99,,,-99.99,,2013-05-02 07:52:00,
2013-05-02 03:02:00,35.0,32.0,-100.00,North,0,0.0,-999.0,89,-99.99,,,-99.99,,2013-05-02 08:02:00,
2013-05-02 03:11:00,35.0,31.0,-100.00,North,0,0.0,-999.0,88,-99.99,,,-99.99,,2013-05-02 08:11:00,
2013-05-02 03:22:00,35.0,31.0,-100.00,North,0,0.0,-999.0,86,-99.99,,,-99.99,,2013-05-02 08:22:00,
2013-05-02 03:32:00,35.0,31.0,-100.00,North,0,0.0,-999.0,86,-99.99,,,-99.99,,2013-05-02 08:32:00,
2013-05-02 03:42:00,34.0,31.0,-100.00,North,0,0.0,-999.0,87,-99.99,,,-99.99,,2013-05-02 08:42:00,
2013-05-02 03:52:00,34.0,31.0,-100.00,North,0,0.0,-999.0,88,-99.99,,,-99.99,,2013-05-02 08:52:00,
2013-05-02 04:02:00,34.0,31.0,-100.00,North,0,0.0,-999.0,88,-99.99,,,-99.99,,2013-05-02 09:02:00,
2013-05-02 04:12:00,34.0,31.0,-100.00,North,0,0.0,-999.0,90,-99.99,,,-99.99,,2013-05-02 09:12:00,
2013-05-02 04:21:00,34.0,30.0,-100.00,North,0,0.0,-999.0,85,-99.99,,,-99.99,,2013-05-02 09:21:00,
2013-05-02 04:32:00,34.0,29.0,-100.00,North,0,0.0,-999.0,82,-99.99,,,-99.99,,2013-05-02 09:32:00,
2013-05-02 04:42:00,34.0,28.0,-100.00,North,0,0.0,-999.0,79,-99.99,,,-99.99,,2013-05-02 09:42:00,
2013-05-02 04:52:00,34.0,27.0,-100.00,North,0,0.0,-999.0,75,-99.99,,,-99.99,,2013-05-02 09:52:00,
2013-05-02 05:03:00,34.0,25.0,-100.00,North,0,0.0,-999.0,70,-99.99,,,-99.99,,2013-05-02 10:03:00,
2013-05-02 05:12:00,34.0,25.0,-100.00,North,0,0.0,-999.0,68,-99.99,,,-99.99,,2013-05-02 10:12:00,
2013-05-02 05:22:00,34.0,25.0,-100.00,North,0,0.0,-999.0,70,-99.99,,,-99.99,,2013-05-02 10:22:00,
2013-05-02 05:33:00,34.0,28.0,-100.00,North,0,0.0,-999.0,78,-99.99,,,-99.99,,2013-05-02 10:33:00,
2013-05-02 05:42:00,34.0,28.0,-100.00,North,0,0.0,-999.0,78,-99.99,,,-99.99,,2013-05-02 10:42:00,
2013-05-02 05:52:00,33.0,28.0,-100.00,North,0,0.0,-999.0,82,-99.99,,,-99.99,,2013-05-02 10:52:00,
2013-05-02 06:02:00,33.0,28.0,-100.00,North,0,0.0,-999.0,80,-99.99,,,-99.99,,2013-05-02 11:02:00,
2013-05-02 06:12:00,33.0,28.0,-100.00,North,0,0.0,-999.0,80,-99.99,,,-99.99,,2013-05-02 11:12:00,
2013-05-02 06:22:00,33.0,27.0,-100.00,North,0,0.0,-999.0,79,-99.99,,,-99.99,,2013-05-02 11:22:00,
2013-05-02 06:32:00,34.0,28.0,-100.00,North,0,0.0,-999.0,78,-99.99,,,-99.99,,2013-05-02 11:32:00,
2013-05-02 06:42:00,33.0,27.0,-100.00,North,0,0.0,-999.0,78,-99.99,,,-99.99,,2013-05-02 11:42:00,
2013-05-02 06:52:00,33.0,27.0,-100.00,North,0,0.0,-999.0,78,-99.99,,,-99.99,,2013-05-02 11:52:00,
2013-05-02 07:01:00,33.0,27.0,-100.00,North,0,0.0,-999.0,80,-99.99,,,-99.99,,2013-05-02 12:01:00,
2013-05-02 07:11:00,33.0,28.0,-100.00,North,0,0.0,-999.0,82,-99.99,,,-99.99,,2013-05-02 12:11:00,
2013-05-02 07:21:00,33.0,28.0,-100.00,North,0,0.0,-999.0,84,-99.99,,,-99.99,,2013-05-02 12:21:00,
2013-05-02 07:32:00,33.0,28.0,-100.00,North,0,0.0,-999.0,84,-99.99,,,-99.99,,2013-05-02 12:32:00,
2013-05-02 07:42:00,33.0,28.0,-100.00,North,0,0.0,-999.0,84,-99.99,,,-99.99,,2013-05-02 12:42:00,
2013-05-02 07:52:00,33.0,28.0,-100.00,North,0,0.0,-999.0,83,-99.99,,,-99.99,,2013-05-02 12:52:00,
2013-05-02 08:01:00,33.0,29.0,-100.00,North,0,0.0,-999.0,84,-99.99,,,-99.99,,2013-05-02 13:01:00,
2013-05-02 08:11:00,34.0,28.0,-100.00,North,-999,0.0,-999.0,81,-99.99,,,-99.99,,2013-05-02 13:11:00,
2013-05-02 08:21:00,34.0,29.0,-100.00,North,0,0.0,-999.0,82,-99.99,,,-99.99,,2013-05-02 13:21:00,
2013-05-02 08:32:00,34.0,30.0,-100.00,North,0,0.0,-999.0,83,-99.99,,,-99.99,,2013-05-02 13:32:00,
2013-05-02 08:42:00,34.0,30.0,-100.00,North,-999,0.0,-999.0,85,-99.99,,,-99.99,,2013-05-02 13:42:00,
2013-05-02 08:52:00,35.0,29.0,-100.00,North,0,0.0,-999.0,80,-99.99,,,-99.99,,2013-05-02 13:52:00,
2013-05-02 09:02:00,35.0,29.0,-100.00,North,0,0.0,-999.0,78,-99.99,,,-99.99,,2013-05-02 14:02:00,
2013-05-02 09:11:00,35.0,29.0,-100.00,North,-999,0.0,-999.0,77,-99.99,,,-99.99,,2013-05-02 14:11:00,
2013-05-02 09:22:00,36.0,29.0,-100.00,North,0,0.0,-999.0,76,-99.99,,,-99.99,,2013-05-02 14:22:00,
2013-05-02 09:32:00,36.0,27.0,-100.00,North,-999,0.0,-999.0,69,-99.99,,,-99.99,,2013-05-02 14:32:00,
2013-05-02 09:42:00,36.0,27.0,-100.00,North,0,0.0,-999.0,68,-99.99,,,-99.99,,2013-05-02 14:42:00,
2013-05-02 09:52:00,37.0,26.0,-100.00,North,0,0.0,-999.0,65,-99.99,,,-99.99,,2013-05-02 14:52:00,
2013-05-02 10:02:00,37.0,28.0,-100.00,North,-999,0.0,-999.0,70,-99.99,,,-99.99,,2013-05-02 15:02:00,
2013-05-02 10:12:00,37.0,32.0,-100.00,North,0,0.0,-999.0,82,-99.99,,,-99.99,,2013-05-02 15:12:00,
2013-05-02 10:22:00,36.0,32.0,-100.00,North,0,0.0,-999.0,83,-99.99,,,-99.99,,2013-05-02 15:22:00,
2013-05-02 10:33:00,36.0,31.0,-100.00,North,0,0.0,-999.0,81,-99.99,,,-99.99,,2013-05-02 15:33:00,
2013-05-02 10:43:00,37.0,32.0,-100.00,North,0,0.0,-999.0,83,-99.99,,,-99.99,,2013-05-02 15:43:00,
2013-05-02 11:03:00,36.0,30.0,-100.00,North,0,0.0,-999.0,78,-99.99,,,-99.99,,2013-05-02 16:03:00,
2013-05-02 11:13:00,37.0,29.0,-100.00,North,0,0.0,-999.0,74,-99.99,,,-99.99,,2013-05-02 16:13:00,
2013-05-02 11:22:00,37.0,32.0,-100.00,North,0,0.0,-999.0,81,-99.99,,,-99.99,,2013-05-02 16:22:00,
2013-05-02 11:32:00,37.0,30.0,-100.00,North,0,0.0,-999.0,75,-99.99,,,-99.99,,2013-05-02 16:32:00,
2013-05-02 11:43:00,38.0,33.0,-100.00,North,0,0.0,-999.0,82,-99.99,,,-99.99,,2013-05-02 16:43:00,
2013-05-02 11:52:00,38.0,31.0,-100.00,North,0,0.0,-999.0,76,-99.99,,,-99.99,,2013-05-02 16:52:00,
2013-05-02 12:02:00,37.0,30.0,-100.00,North,0,0.0,-999.0,75,-99.99,,,-99.99,,2013-05-02 17:02:00,
2013-05-02 12:12:00,38.0,30.0,-100.00,North,0,0.0,-999.0,73,-99.99,,,-99.99,,2013-05-02 17:12:00,
2013-05-02 12:22:00,38.0,31.0,-100.00,North,0,0.0,-999.0,74,-99.99,,,-99.99,,2013-05-02 17:22:00,
2013-05-02 12:32:00,39.0,31.0,-100.00,North,0,0.0,-999.0,72,-99.99,,,-99.99,,2013-05-02 17:32:00,
2013-05-02 12:42:00,39.0,31.0,-100.00,North,0,0.0,-999.0,71,-99.99,,,-99.99,,2013-05-02 17:42:00,
2013-05-02 12:52:00,40.0,30.0,-100.00,North,0,0.0,-999.0,67,-99.99,,,-99.99,,2013-05-02 17:52:00,
2013-05-02 13:01:00,40.0,26.0,-100.00,North,0,0.0,-999.0,57,-99.99,,,-99.99,,2013-05-02 18:01:00,
2013-05-02 13:11:00,41.0,28.0,-100.00,North,0,0.0,-999.0,59,-99.99,,,-99.99,,2013-05-02 18:11:00,
2013-05-02 13:21:00,42.0,29.0,-100.00,North,0,0.0,-999.0,59,-99.99,,,-99.99,,2013-05-02 18:21:00,
2013-05-02 13:32:00,43.0,29.0,-100.00,North,0,0.0,-999.0,58,-99.99,,,-99.99,,2013-05-02 18:32:00,
2013-05-02 13:42:00,43.0,29.0,-100.00,North,0,0.0,-999.0,59,-99.99,,,-99.99,,2013-05-02 18:42:00,
2013-05-02 13:52:00,43.0,30.0,-100.00,North,0,0.0,-999.0,58,-99.99,,,-99.99,,2013-05-02 18:52:00,
2013-05-02 14:01:00,44.0,25.0,-100.00,North,0,0.0,-999.0,48,-99.99,,,-99.99,,2013-05-02 19:01:00,
2013-05-02 14:11:00,45.0,28.0,-100.00,North,0,0.0,-999.0,52,-99.99,,,-99.99,,2013-05-02 19:11:00,
2013-05-02 14:22:00,45.0,31.0,-100.00,North,0,0.0,-999.0,57,-99.99,,,-99.99,,2013-05-02 19:22:00,
2013-05-02 14:32:00,45.0,29.0,-100.00,North,0,0.0,-999.0,53,-99.99,,,-99.99,,2013-05-02 19:32:00,
2013-05-02 14:42:00,45.0,29.0,-100.00,North,0,0.0,-999.0,53,-99.99,,,-99.99,,2013-05-02 19:42:00,
2013-05-02 14:52:00,46.0,30.0,-100.00,North,0,0.0,-999.0,52,-99.99,,,-99.99,,2013-05-02 19:52:00,
2013-05-02 15:02:00,47.0,29.0,-100.00,North,0,0.0,-999.0,50,-99.99,,,-99.99,,2013-05-02 20:02:00,
2013-05-02 15:11:00,47.0,28.0,-100.00,North,0,0.0,-999.0,47,-99.99,,,-99.99,,2013-05-02 20:11:00,
2013-05-02 15:22:00,47.0,28.0,-100.00,North,0,0.0,-999.0,47,-99.99,,,-99.99,,2013-05-02 20:22:00,
2013-05-02 15:32:00,48.0,27.0,-100.00,North,0,0.0,-999.0,44,-99.99,,,-99.99,,2013-05-02 20:32:00,
2013-05-02 15:41:00,47.0,28.0,-100.00,North,-999,0.0,-999.0,47,-99.99,,,-99.99,,2013-05-02 20:41:00,
2013-05-02 15:52:00,48.0,3.0,-100.00,North,0,0.0,-999.0,15,-99.99,,,-99.99,,2013-05-02 20:52:00,
2013-05-02 16:11:00,49.0,16.0,-100.00,North,-999,0.0,-999.0,27,-99.99,,,-99.99,,2013-05-02 21:11:00,
2013-05-02 16:21:00,48.0,26.0,-100.00,North,0,0.0,-999.0,42,-99.99,,,-99.99,,2013-05-02 21:21:00,
2013-05-02 16:33:00,49.0,27.0,-100.00,North,0,0.0,-999.0,41,-99.99,,,-99.99,,2013-05-02 21:33:00,
2013-05-02 16:42:00,49.0,25.0,-100.00,North,-999,0.0,-999.0,39,-99.99,,,-99.99,,2013-05-02 21:42:00,
2013-05-02 16:53:00,49.0,24.0,-100.00,North,0,0.0,-999.0,38,-99.99,,,-99.99,,2013-05-02 21:53:00,
2013-05-02 17:03:00,49.0,24.0,-100.00,North,0,0.0,-999.0,38,-99.99,,,-99.99,,2013-05-02 22:03:00,
2013-05-02 17:12:00,48.0,24.0,-100.00,North,0,0.0,-999.0,38,-99.99,,,-99.99,,2013-05-02 22:12:00,
2013-05-02 17:22:00,49.0,24.0,-100.00,North,0,0.0,-999.0,37,-99.99,,,-99.99,,2013-05-02 22:22:00,
2013-05-02 17:32:00,49.0,23.0,-100.00,North,0,0.0,-999.0,37,-99.99,,,-99.99,,2013-05-02 22:32:00,
2013-05-02 17:42:00,50.0,25.0,-100.00,North,0,0.0,-999.0,38,-99.99,,,-99.99,,2013-05-02 22:42:00,
2013-05-02 17:52:00,49.0,21.0,-100.00,North,0,0.0,-999.0,33,-99.99,,,-99.99,,2013-05-02 22:52:00,
2013-05-02 18:02:00,50.0,24.0,-100.00,North,0,0.0,-999.0,36,-99.99,,,-99.99,,2013-05-02 23:02:00,
2013-05-02 18:11:00,50.0,22.0,-100.00,North,0,0.0,-999.0,34,-99.99,,,-99.99,,2013-05-02 23:11:00,
2013-05-02 18:22:00,49.0,21.0,-100.00,North,0,0.0,-999.0,33,-99.99,,,-99.99,,2013-05-02 23:22:00,
2013-05-02 18:32:00,49.0,22.0,-100.00,North,0,0.0,-999.0,34,-99.99,,,-99.99,,2013-05-02 23:32:00,
2013-05-02 18:42:00,49.0,22.0,-100.00,North,0,0.0,-999.0,34,-99.99,,,-99.99,,2013-05-02 23:42:00,
2013-05-02 18:51:00,49.0,23.0,-100.00,North,0,0.0,-999.0,35,-99.99,,,-99.99,,2013-05-02 23:51:00,
2013-05-02 19:01:00,49.0,25.0,-100.00,North,0,0.0,-999.0,38,-99.99,,,-99.99,,2013-05-03 00:01:00,
2013-05-02 19:11:00,49.0,22.0,-100.00,North,0,0.0,-999.0,35,-99.99,,,-99.99,,2013-05-03 00:11:00,
2013-05-02 19:21:00,48.0,25.0,-100.00,North,0,0.0,-999.0,41,-99.99,,,-99.99,,2013-05-03 00:21:00,
2013-05-02 19:31:00,48.0,25.0,-100.00,North,0,0.0,-999.0,40,-99.99,,,-99.99,,2013-05-03 00:31:00,
2013-05-02 19:42:00,48.0,25.0,-100.00,North,0,0.0,-999.0,40,-99.99,,,-99.99,,2013-05-03 00:42:00,
2013-05-02 19:52:00,47.0,23.0,-100.00,North,0,0.0,-999.0,39,-99.99,,,-99.99,,2013-05-03 00:52:00,
2013-05-02 20:01:00,46.0,23.0,-100.00,North,0,0.0,-999.0,40,-99.99,,,-99.99,,2013-05-03 01:01:00,
2013-05-02 20:11:00,46.0,24.0,-100.00,North,0,0.0,-999.0,41,-99.99,,,-99.99,,2013-05-03 01:11:00,
2013-05-02 20:21:00,45.0,23.0,-100.00,North,0,0.0,-999.0,41,-99.99,,,-99.99,,2013-05-03 01:21:00,
2013-05-02 20:31:00,45.0,20.0,-100.00,North,0,0.0,-999.0,37,-99.99,,,-99.99,,2013-05-03 01:31:00,
2013-05-02 20:42:00,44.0,23.0,-100.00,North,0,0.0,-999.0,44,-99.99,,,-99.99,,2013-05-03 01:42:00,
2013-05-02 20:52:00,43.0,24.0,-100.00,North,0,0.0,-999.0,47,-99.99,,,-99.99,,2013-05-03 01:52:00,
2013-05-02 21:01:00,42.0,25.0,-100.00,North,0,0.0,-999.0,49,-99.99,,,-99.99,,2013-05-03 02:01:00,
2013-05-02 21:11:00,42.0,25.0,-100.00,North,0,0.0,-999.0,51,-99.99,,,-99.99,,2013-05-03 02:11:00,
2013-05-02 21:21:00,41.0,26.0,-100.00,North,0,0.0,-999.0,55,-99.99,,,-99.99,,2013-05-03 02:21:00,
2013-05-02 21:32:00,40.0,27.0,-100.00,North,0,0.0,-999.0,60,-99.99,,,-99.99,,2013-05-03 02:32:00,
2013-05-02 21:42:00,39.0,27.0,-100.00,North,0,0.0,-999.0,62,-99.99,,,-99.99,,2013-05-03 02:42:00,
2013-05-02 21:52:00,39.0,29.0,-100.00,North,0,0.0,-999.0,67,-99.99,,,-99.99,,2013-05-03 02:52:00,
2013-05-02 22:01:00,38.0,29.0,-100.00,North,0,0.0,-999.0,69,-99.99,,,-99.99,,2013-05-03 03:01:00,
2013-05-02 22:11:00,38.0,29.0,-100.00,North,0,0.0,-999.0,70,-99.99,,,-99.99,,2013-05-03 03:11:00,
2013-05-02 22:21:00,38.0,28.0,-100.00,North,0,0.0,-999.0,69,-99.99,,,-99.99,,2013-05-03 03:21:00,
2013-05-02 22:33:00,37.0,30.0,-100.00,North,0,0.0,-999.0,74,-99.99,,,-99.99,,2013-05-03 03:33:00,
2013-05-02 22:42:00,36.0,30.0,-100.00,North,0,0.0,-999.0,77,-99.99,,,-99.99,,2013-05-03 03:42:00,
2013-05-02 22:52:00,36.0,31.0,-100.00,North,0,0.0,-999.0,80,-99.99,,,-99.99,,2013-05-03 03:52:00,
2013-05-02 23:03:00,36.0,31.0,-100.00,North,0,0.0,-999.0,83,-99.99,,,-99.99,,2013-05-03 04:03:00,
2013-05-02 23:12:00,36.0,31.0,-100.00,North,0,0.0,-999.0,82,-99.99,,,-99.99,,2013-05-03 04:12:00,
2013-05-02 23:23:00,35.0,30.0,-100.00,North,0,0.0,-999.0,82,-99.99,,,-99.99,,2013-05-03 04:23:00,
2013-05-02 23:32:00,35.0,31.0,-100.00,North,0,0.0,-999.0,84,-99.99,,,-99.99,,2013-05-03 04:32:00,
2013-05-02 23:42:00,35.0,30.0,-100.00,North,0,0.0,-999.0,79,-99.99,,,-99.99,,2013-05-03 04:42:00,
2013-05-02 23:52:00,36.0,28.0,-100.00,North,0,0.0,-999.0,75,-99.99,,,-99.99,,2013-05-03 04:52:00,